TimeEDT,TemperatureF,Dew PointF,Humidity,Sea Level PressureIn,VisibilityMPH,Wind Direction,Wind SpeedMPH,Gust SpeedMPH,PrecipitationIn,Events,Conditions,WindDirDegrees,DateUTC
12:15 AM,35.6,35.6,100,29.98,10.0,Calm,Calm,-,N/A,,Clear,0,2012-11-03 04:15:00
12:35 AM,33.8,33.8,100,29.99,10.0,Calm,Calm,-,N/A,,Clear,0,2012-11-03 04:35:00
12:55 AM,33.8,33.8,100,29.99,10.0,Calm,Calm,-,N/A,,Clear,0,2012-11-03 04:55:00
1:15 AM,33.8,33.8,100,29.99,10.0,Calm,Calm,-,N/A,,Clear,0,2012-11-03 05:15:00
1:35 AM,32.0,32.0,100,29.99,10.0,Calm,Calm,-,N/A,,Clear,0,2012-11-03 05:35:00
1:55 AM,32.0,32.0,100,29.99,10.0,Calm,Calm,-,N/A,,Clear,0,2012-11-03 05:55:00
2:15 AM,32.0,32.0,100,29.99,10.0,Calm,Calm,-,N/A,,Clear,0,2012-11-03 06:15:00
2:35 AM,32.0,32.0,100,29.99,10.0,Calm,Calm,-,N/A,,Clear,0,2012-11-03 06:35:00
2:55 AM,32.0,32.0,100,29.99,10.0,Calm,Calm,-,N/A,,Clear,0,2012-11-03 06:55:00
3:15 AM,32.0,32.0,100,29.99,10.0,Calm,Calm,-,N/A,,Clear,0,2012-11-03 07:15:00
3:35 AM,32.0,32.0,100,29.99,10.0,Calm,Calm,-,N/A,,Clear,0,2012-11-03 07:35:00
3:55 AM,32.0,32.0,100,29.99,10.0,Calm,Calm,-,N/A,,Clear,0,2012-11-03 07:55:00
4:15 AM,32.0,32.0,100,29.99,10.0,Calm,Calm,-,N/A,,Clear,0,2012-11-03 08:15:00
4:35 AM,32.0,32.0,100,29.99,10.0,Calm,Calm,-,N/A,,Clear,0,2012-11-03 08:35:00
4:55 AM,32.0,32.0,100,30.00,10.0,Calm,Calm,-,N/A,,Clear,0,2012-11-03 08:55:00
5:15 AM,32.0,32.0,100,30.00,10.0,Calm,Calm,-,N/A,,Clear,0,2012-11-03 09:15:00
5:35 AM,32.0,32.0,100,30.01,10.0,Calm,Calm,-,N/A,,Clear,0,2012-11-03 09:35:00
5:55 AM,32.0,32.0,100,30.02,10.0,Calm,Calm,-,N/A,,Clear,0,2012-11-03 09:55:00
6:15 AM,30.2,30.2,100,30.03,10.0,Calm,Calm,-,N/A,,Clear,0,2012-11-03 10:15:00
6:35 AM,30.2,30.2,100,30.04,10.0,Calm,Calm,-,N/A,,Clear,0,2012-11-03 10:35:00
6:55 AM,30.2,30.2,100,30.05,10.0,Calm,Calm,-,N/A,,Clear,0,2012-11-03 10:55:00
7:15 AM,30.2,30.2,100,30.06,10.0,Calm,Calm,-,N/A,,Clear,0,2012-11-03 11:15:00
7:35 AM,30.2,30.2,100,30.07,10.0,Calm,Calm,-,N/A,,Clear,0,2012-11-03 11:35:00
7:55 AM,30.2,30.2,100,30.08,10.0,Calm,Calm,-,N/A,,Clear,0,2012-11-03 11:55:00
8:15 AM,32.0,32.0,100,30.08,10.0,Calm,Calm,-,N/A,,Clear,0,2012-11-03 12:15:00
8:35 AM,32.0,32.0,100,30.09,10.0,Calm,Calm,-,N/A,,Clear,0,2012-11-03 12:35:00
8:55 AM,35.6,33.8,93,30.10,10.0,Calm,Calm,-,N/A,,Clear,0,2012-11-03 12:55:00
9:15 AM,41.0,37.4,87,30.09,10.0,Calm,Calm,-,N/A,,Clear,0,2012-11-03 13:15:00
9:35 AM,44.6,33.8,66,30.10,10.0,NNW,3.5,-,N/A,,Clear,330,2012-11-03 13:35:00
9:55 AM,46.4,33.8,62,30.10,10.0,NNW,6.9,-,N/A,,Clear,330,2012-11-03 13:55:00
10:15 AM,48.2,32.0,54,30.11,10.0,North,4.6,-,N/A,,Clear,350,2012-11-03 14:15:00
10:35 AM,50.0,32.0,50,30.11,10.0,NNW,5.8,-,N/A,,Clear,330,2012-11-03 14:35:00
10:55 AM,50.0,32.0,50,30.10,10.0,North,6.9,-,N/A,,Clear,350,2012-11-03 14:55:00
11:15 AM,51.8,32.0,47,30.10,10.0,NNW,5.8,-,N/A,,Clear,330,2012-11-03 15:15:00
11:35 AM,51.8,32.0,47,30.10,10.0,NNW,5.8,18.4,N/A,,Clear,340,2012-11-03 15:35:00
11:55 AM,53.6,32.0,44,30.09,10.0,North,9.2,17.3,N/A,,Clear,360,2012-11-03 15:55:00
12:15 PM,53.6,32.0,44,30.08,10.0,North,12.7,17.3,N/A,,Clear,360,2012-11-03 16:15:00
12:35 PM,53.6,32.0,44,30.08,10.0,North,8.1,-,N/A,,Clear,350,2012-11-03 16:35:00
12:55 PM,55.4,32.0,41,30.07,10.0,NNW,5.8,-,N/A,,Clear,340,2012-11-03 16:55:00
1:15 PM,55.4,32.0,41,30.06,10.0,North,5.8,-,N/A,,Clear,360,2012-11-03 17:15:00
1:35 PM,55.4,32.0,41,30.06,10.0,North,4.6,-,N/A,,Clear,350,2012-11-03 17:35:00
1:55 PM,57.2,32.0,38,30.06,10.0,NNW,8.1,-,N/A,,Clear,330,2012-11-03 17:55:00
2:15 PM,57.2,32.0,38,30.05,10.0,North,3.5,-,N/A,,Clear,350,2012-11-03 18:15:00
2:35 PM,57.2,32.0,38,30.05,10.0,WNW,5.8,16.1,N/A,,Clear,300,2012-11-03 18:35:00
2:55 PM,59.0,32.0,36,30.04,10.0,NNW,4.6,-,N/A,,Clear,330,2012-11-03 18:55:00
3:15 PM,59.0,32.0,36,30.04,10.0,WSW,6.9,-,N/A,,Clear,240,2012-11-03 19:15:00
3:35 PM,59.0,32.0,36,30.04,10.0,West,5.8,-,N/A,,Clear,260,2012-11-03 19:35:00
3:55 PM,59.0,32.0,36,30.03,10.0,West,3.5,-,N/A,,Clear,280,2012-11-03 19:55:00
4:15 PM,59.0,32.0,36,30.03,10.0,West,3.5,-,N/A,,Clear,280,2012-11-03 20:15:00
4:35 PM,59.0,32.0,36,30.03,10.0,Calm,Calm,-,N/A,,Clear,0,2012-11-03 20:35:00
4:55 PM,60.8,32.0,34,30.03,10.0,Calm,Calm,-,N/A,,Clear,0,2012-11-03 20:55:00
5:15 PM,59.0,32.0,36,30.03,10.0,Calm,Calm,-,N/A,,Clear,0,2012-11-03 21:15:00
5:35 PM,59.0,32.0,36,30.03,10.0,Calm,Calm,-,N/A,,Clear,0,2012-11-03 21:35:00
5:55 PM,55.4,33.8,44,30.03,10.0,Calm,Calm,-,N/A,,Clear,0,2012-11-03 21:55:00
6:15 PM,50.0,37.4,62,30.05,10.0,Calm,Calm,-,N/A,,Clear,0,2012-11-03 22:15:00
6:35 PM,48.2,37.4,66,30.04,10.0,Calm,Calm,-,N/A,,Clear,0,2012-11-03 22:35:00
6:55 PM,44.6,37.4,76,30.04,10.0,Calm,Calm,-,N/A,,Clear,0,2012-11-03 22:55:00
7:15 PM,44.6,37.4,76,30.04,10.0,Calm,Calm,-,N/A,,Clear,0,2012-11-03 23:15:00
7:35 PM,42.8,37.4,81,30.05,10.0,Calm,Calm,-,N/A,,Clear,0,2012-11-03 23:35:00
7:55 PM,42.8,37.4,81,30.05,10.0,Calm,Calm,-,N/A,,Clear,0,2012-11-03 23:55:00
8:15 PM,42.8,37.4,81,30.05,10.0,Calm,Calm,-,N/A,,Clear,0,2012-11-04 00:15:00
8:35 PM,41.0,37.4,87,30.06,10.0,Calm,Calm,-,N/A,,Clear,0,2012-11-04 00:35:00
8:55 PM,41.0,37.4,87,30.05,10.0,Calm,Calm,-,N/A,,Clear,0,2012-11-04 00:55:00
9:15 PM,41.0,37.4,87,30.05,10.0,Calm,Calm,-,N/A,,Clear,0,2012-11-04 01:15:00
9:35 PM,41.0,37.4,87,30.06,10.0,Calm,Calm,-,N/A,,Clear,0,2012-11-04 01:35:00
9:55 PM,39.2,37.4,93,30.07,10.0,Calm,Calm,-,N/A,,Clear,0,2012-11-04 01:55:00
10:15 PM,37.4,37.4,100,30.07,10.0,Calm,Calm,-,N/A,,Clear,0,2012-11-04 02:15:00
10:35 PM,37.4,37.4,100,30.07,10.0,Calm,Calm,-,N/A,,Clear,0,2012-11-04 02:35:00
10:55 PM,37.4,35.6,93,30.07,10.0,Calm,Calm,-,N/A,,Clear,0,2012-11-04 02:55:00
11:15 PM,37.4,35.6,93,30.07,10.0,Calm,Calm,-,N/A,,Scattered Clouds,0,2012-11-04 03:15:00
11:35 PM,35.6,35.6,100,30.07,10.0,Calm,Calm,-,N/A,,Clear,0,2012-11-04 03:35:00
11:55 PM,37.4,35.6,93,30.07,10.0,Calm,Calm,-,N/A,,Clear,0,2012-11-04 03:55:00